Location: Unspecified
(0.0000°N, 0.0000°E)
Time: 14:32:26
(UTC+00:00)

Envisat - Pass Details

Date: 17 September 2020
Orbit: 764 x 766 km, 98.1° (Epoch: 19 September)

Event Time Altitude Azimuth Distance (km) Brightness Sun altitude
Rises 05:17:54 0° 23° (NNE) 3,214 6.6 -9.1°
Reaches altitude 10° 05:20:16 10° 29° (NNE) 2,291 5.9 -8.5°
Maximum altitude 05:25:06 47° 102° (ESE) 1,007 4.2 -7.3°
Drops below altitude 10° 05:29:58 10° 175° (S) 2,302 5.5 -6.1°
Sets 05:32:20 0° 181° (S) 3,230 6.2 -5.5°
